STARLINK-35845 (66366 NORAD) Tracking and Keplerian Element Data

This shows tracking and keplerian element data for the satellite.

Feedback or suggestion? Click here.




ElementValue
Catalog66366
NameSTARLINK-35845
Epoch Orbit677
Epoch Day353.99615372
Epoch Year2025
RAAN242.6619
Inclination53.1574
Eccentricity0.0001107
Argument of Perigee84.6066
Mean Anonmoly275.5061
Mean Motion15.30201823
Decay Rate0.00015527
L11 66366U 25254U 25353.99615372 .00015527 00000+0 53522-3 0 9994
L22 66366 53.1574 242.6619 0001107 84.6066 275.5061 15.30201823 6774



Live tracking and technical data element details for STARLINK-35845 (NORAD 66366). STARLINK-35845 can be tracked NOW for your location showing map with azimuth and elevation plus other details from your city location.







IsCatalogInMostPopularTable: catalog: 66366, numindb: 10
Update: records affected: 1



GetName: 66366 STARLINK-35845

Hit Count: updated at: Tue, 21 Apr 2026 19:00:32 GMT